Date,Installs,Update checks
2015-01-26,4,1
2015-01-27,3,6
2015-01-28,2,5
2015-01-29,2,8
2015-01-30,5,7
2015-01-31,1,7
2015-02-01,3,10
2015-02-02,6,12
2015-02-03,1,10
2015-02-04,4,12
2015-02-05,3,9
2015-02-06,3,16
2015-02-07,2,12
2015-02-08,5,19
2015-02-09,4,10
2015-02-10,6,13
2015-02-11,6,16
2015-02-12,6,12
2015-02-13,5,13
2015-02-14,1,15
2015-02-15,3,12
2015-02-16,5,15
2015-02-17,3,14
2015-02-18,0,16
2015-02-19,4,15
2015-02-20,16,20
2015-02-21,14,15
2015-02-22,19,28
2015-02-23,12,23
2015-02-24,7,27
2015-02-25,5,29
2015-02-26,7,31
2015-02-27,11,36
2015-02-28,11,33
2015-03-01,1,34
2015-03-02,2,38
2015-03-03,5,38
2015-03-04,9,39
2015-03-05,7,36
2015-03-06,8,40
2015-03-07,15,35
2015-03-08,9,45
2015-03-09,4,46
2015-03-10,3,40
2015-03-11,3,47
2015-03-12,4,40
2015-03-13,3,46
2015-03-14,1,43
2015-03-15,3,38
2015-03-16,0,41
2015-03-17,1,38
2015-03-18,2,46
2015-03-19,0,40
2015-03-20,3,41
2015-03-21,8,39
2015-03-22,7,49
2015-03-23,7,44
2015-03-24,18,53
2015-03-25,9,61
2015-03-26,10,64
2015-03-27,9,58
2015-03-28,2,67
2015-03-29,10,60
2015-03-30,5,81
2015-03-31,2,58
2015-04-01,2,80
2015-04-02,4,60
2015-04-03,0,81
2015-04-04,0,54
2015-04-05,0,66
2015-04-06,1,66
2015-04-07,2,70
2015-04-08,0,66
2015-04-09,0,68
2015-04-10,0,65
2015-04-11,3,65
2015-04-12,2,67
2015-04-13,3,63
2015-04-14,2,59
2015-04-15,1,71
2015-04-16,0,58
2015-04-17,1,60
2015-04-18,0,59
2015-04-19,0,61
2015-04-20,1,66
2015-04-21,1,62
2015-04-22,2,69
2015-04-23,2,50
2015-04-24,1,71
2015-04-25,2,51
2015-04-26,2,56
2015-04-27,0,61
2015-04-28,2,54
2015-04-29,1,58
2015-04-30,1,58
2015-05-01,2,46
2015-05-02,2,53
2015-05-03,2,52
2015-05-04,2,57
2015-05-05,0,55
2015-05-06,0,57
2015-05-07,2,59
2015-05-08,0,60
2015-05-09,3,58
2015-05-10,2,54
2015-05-11,0,62
2015-05-12,0,64
2015-05-13,0,61
2015-05-14,1,55
2015-05-15,1,56
2015-05-16,1,51
2015-05-17,0,57
2015-05-18,1,58
2015-05-19,0,58
2015-05-20,4,53
2015-05-21,3,62
2015-05-22,1,59
2015-05-23,3,48
2015-05-24,1,56
2015-05-25,0,55
2015-05-26,0,53
2015-05-27,0,55
2015-05-28,0,2
2015-05-29,1,75
2015-05-30,2,43
2015-05-31,2,57
2015-06-01,1,54
2015-06-02,2,55
2015-06-03,0,62
2015-06-04,1,52
2015-06-05,0,65
2015-06-06,1,50
2015-06-07,2,51
2015-06-08,3,68
2015-06-09,1,49
2015-06-10,3,76
2015-06-11,6,52
2015-06-12,3,76
2015-06-13,6,64
2015-06-14,3,66
2015-06-15,4,56
2015-06-16,3,71
2015-06-17,3,71
2015-06-18,3,72
2015-06-19,3,80
2015-06-20,2,64
2015-06-21,1,57
2015-06-22,3,72
2015-06-23,4,80
2015-06-24,1,74
2015-06-25,2,72
2015-06-26,3,79
2015-06-27,4,64
2015-06-28,1,72
2015-06-29,0,91
2015-06-30,2,76
2015-07-01,2,71
2015-07-02,1,76
2015-07-03,2,68
2015-07-04,1,72
2015-07-05,2,71
2015-07-06,3,74
2015-07-07,3,67
2015-07-08,2,80
2015-07-09,2,75
2015-07-10,2,75
2015-07-11,5,69
2015-07-12,1,72
2015-07-13,0,81
2015-07-14,1,72
2015-07-15,1,78
2015-07-16,0,71
2015-07-17,0,76
2015-07-18,3,70
2015-07-19,0,73
2015-07-20,0,73
2015-07-21,0,67
2015-07-22,4,87
2015-07-23,1,73
2015-07-24,2,89
2015-07-25,1,87
2015-07-26,2,91
2015-07-27,7,92
2015-07-28,10,97
2015-07-29,9,96
2015-07-30,5,84
2015-07-31,0,101
2015-08-01,1,91
2015-08-02,2,91
2015-08-03,2,108
2015-08-04,0,100
2015-08-05,2,102
2015-08-06,3,101
2015-08-07,2,104
2015-08-08,0,99
2015-08-09,0,81
2015-08-10,1,103
2015-08-11,2,85
2015-08-12,0,99
2015-08-13,1,92
2015-08-14,4,96
2015-08-15,3,73
2015-08-16,1,79
2015-08-17,1,98
2015-08-18,0,81
2015-08-19,3,107
2015-08-20,2,89
2015-08-21,3,97
2015-08-22,0,84
2015-08-23,2,88
2015-08-24,1,92
2015-08-25,0,97
2015-08-26,2,90
2015-08-27,0,88
2015-08-28,1,105
2015-08-29,1,83
2015-08-30,0,82
2015-08-31,0,102
2015-09-01,2,92
2015-09-02,0,107
2015-09-03,0,71
2015-09-04,6,87
2015-09-05,3,86
2015-09-06,1,109
2015-09-07,2,97
2015-09-08,2,102
2015-09-09,4,121
2015-09-10,0,96
2015-09-11,1,111
2015-09-12,0,110
2015-09-13,1,108
2015-09-14,0,118
2015-09-15,0,104
2015-09-16,0,104
2015-09-17,1,107
2015-09-18,1,117
2015-09-19,0,101
2015-09-20,1,105
2015-09-21,0,122
2015-09-22,0,104
2015-09-23,0,108
2015-09-24,0,110
2015-09-25,0,124
2015-09-26,2,93
2015-09-27,1,105
2015-09-28,0,121
2015-09-29,0,104
2015-09-30,0,121
2015-10-01,0,101
2015-10-02,1,97
2015-10-03,0,103
2015-10-04,1,99
2015-10-05,0,92
2015-10-06,0,111
2015-10-07,0,104
2015-10-08,0,108
2015-10-09,1,93
2015-10-10,0,116
2015-10-11,1,101
2015-10-12,0,124
2015-10-13,0,87
2015-10-14,0,113
2015-10-15,0,98
2015-10-16,3,110
2015-10-17,1,110
2015-10-18,3,92
2015-10-19,1,113
2015-10-20,0,86
2015-10-21,0,114
2015-10-22,0,97
2015-10-23,1,113
2015-10-24,1,104
2015-10-25,0,94
2015-10-26,0,111
2015-10-27,0,92
2015-10-28,1,106
2015-10-29,1,102
2015-10-30,1,116
2015-10-31,0,92
2015-11-01,0,99
2015-11-02,0,97
2015-11-03,3,106
2015-11-04,0,99
2015-11-05,0,96
2015-11-06,0,109
2015-11-07,1,97
2015-11-08,1,86
2015-11-09,2,109
2015-11-10,1,79
2015-11-11,1,104
2015-11-12,1,89
2015-11-13,1,108
2015-11-14,0,86
2015-11-15,0,84
2015-11-16,2,86
2015-11-17,0,77
2015-11-18,2,81
2015-11-19,1,75
2015-11-20,0,80
2015-11-21,1,78
2015-11-22,0,72
2015-11-23,1,79
2015-11-24,0,71
2015-11-25,0,72
2015-11-26,0,62
2015-11-27,1,80
2015-11-28,0,62
2015-11-29,0,74
2015-11-30,0,75
2015-12-01,1,61
2015-12-02,0,61
2015-12-03,0,58
2015-12-04,2,84
2015-12-05,2,63
2015-12-06,0,48
2015-12-07,0,61
2015-12-08,0,56
2015-12-09,0,56
2015-12-10,1,61
2015-12-11,0,71
2015-12-12,1,56
2015-12-13,2,60
2015-12-14,4,63
2015-12-15,5,67
2015-12-16,2,55
2015-12-17,4,59
2015-12-18,3,61
2015-12-19,2,61
2015-12-20,1,51
2015-12-21,0,48
2015-12-22,3,71
2015-12-23,1,61
2015-12-24,3,66
2015-12-25,4,56
2015-12-26,4,63
2015-12-27,3,52
2015-12-28,0,67
2015-12-29,1,64
2015-12-30,1,63
2015-12-31,2,65
2016-01-01,4,59
2016-01-02,2,67
2016-01-03,4,66
2016-01-04,2,57
2016-01-05,0,67
2016-01-06,1,55
2016-01-07,2,67
2016-01-08,6,71
2016-01-09,4,64
2016-01-10,2,51
2016-01-11,1,74
2016-01-12,1,52
2016-01-13,1,58
2016-01-14,2,56
2016-01-15,0,73
2016-01-16,1,57
2016-01-17,1,60
2016-01-18,1,62
2016-01-19,2,55
2016-01-20,2,71
2016-01-21,1,50
2016-01-22,0,73
2016-01-23,1,58
2016-01-24,1,71
2016-01-25,1,59
2016-01-26,3,63
2016-01-27,0,60
2016-01-28,0,63
2016-01-29,0,64
2016-01-30,0,67
2016-01-31,0,58
2016-02-01,0,75
2016-02-02,1,68
2016-02-03,3,77
2016-02-04,5,66
2016-02-05,0,65
2016-02-06,0,60
2016-02-07,0,63
2016-02-08,1,56
2016-02-09,2,63
2016-02-10,11,56
2016-02-11,5,47
2016-02-12,3,67
2016-02-13,1,65
2016-02-14,2,78
2016-02-15,3,82
2016-02-16,4,78
2016-02-17,0,91
2016-02-18,1,76
2016-02-19,5,82
2016-02-20,2,72
2016-02-21,2,66
2016-02-22,1,77
2016-02-23,3,64
2016-02-24,3,67
2016-02-25,0,65
2016-02-26,4,81
2016-02-27,3,67
2016-02-28,1,63
2016-02-29,0,75
2016-03-01,0,53
2016-03-02,2,72
2016-03-03,1,70
2016-03-04,2,77
2016-03-05,6,66
2016-03-06,2,56
2016-03-07,0,83
2016-03-08,0,63
2016-03-09,3,73
2016-03-10,0,66
2016-03-11,5,72
2016-03-12,1,63
2016-03-13,6,70
2016-03-14,8,76
2016-03-15,7,73
2016-03-16,4,68
2016-03-17,0,75
2016-03-18,3,82
2016-03-19,3,78
2016-03-20,4,74
2016-03-21,5,73
2016-03-22,7,68
2016-03-23,5,66
2016-03-24,3,56
2016-03-25,5,76
2016-03-26,4,63
2016-03-27,7,61
2016-03-28,6,77
2016-03-29,3,67
2016-03-30,0,67
2016-03-31,2,67
2016-04-01,3,71
2016-04-02,4,70
2016-04-03,1,62
2016-04-04,4,70
2016-04-05,4,65
2016-04-06,5,73
2016-04-07,2,57
2016-04-08,4,67
2016-04-09,3,56
2016-04-10,5,49
2016-04-11,3,69
2016-04-12,5,58
2016-04-13,2,71
2016-04-14,4,72
2016-04-15,2,66
2016-04-16,1,71
2016-04-17,1,57
2016-04-18,2,72
2016-04-19,2,61
2016-04-20,8,60
2016-04-21,4,76
2016-04-22,1,69
2016-04-23,3,71
2016-04-24,5,58
2016-04-25,1,81
2016-04-26,7,66
2016-04-27,2,77
2016-04-28,4,74
2016-04-29,10,76
2016-04-30,3,82
2016-05-01,4,64
2016-05-02,4,66
2016-05-03,7,84
2016-05-04,4,65
2016-05-05,4,74
2016-05-06,3,87
2016-05-07,7,69
2016-05-08,1,66
2016-05-09,1,87
2016-05-10,4,61
2016-05-11,2,83
2016-05-12,4,67
2016-05-13,3,89
2016-05-14,6,74
2016-05-15,7,70
2016-05-16,9,93
2016-05-17,2,74
2016-05-18,2,89
2016-05-19,4,91
2016-05-20,6,94
2016-05-21,3,112
2016-05-22,2,96
2016-05-23,2,129
2016-05-24,2,118
2016-05-25,4,137
2016-05-26,4,133
2016-05-27,3,153
2016-05-28,7,140
2016-05-29,3,152
2016-05-30,1,181
2016-05-31,8,168
2016-06-01,4,190
2016-06-02,0,188
2016-06-03,3,206
2016-06-04,3,180
2016-06-05,0,183
2016-06-06,2,212
2016-06-07,6,181
2016-06-08,2,196
2016-06-09,3,172
2016-06-10,1,197
2016-06-11,5,182
2016-06-12,8,205
2016-06-13,6,211
2016-06-14,4,225
2016-06-15,1,195
2016-06-16,3,204
2016-06-17,4,220
2016-06-18,4,182
2016-06-19,4,202
2016-06-20,10,228
2016-06-21,7,221
2016-06-22,2,218
2016-06-23,3,219
2016-06-24,1,239
2016-06-25,3,196
2016-06-26,2,201
2016-06-27,4,255
2016-06-28,1,202
2016-06-29,12,216
2016-06-30,11,219
2016-07-01,4,245
2016-07-02,4,205
2016-07-03,5,216
2016-07-04,6,224
2016-07-05,6,250
2016-07-06,2,253
2016-07-07,5,220
2016-07-08,1,237
2016-07-09,7,211
2016-07-10,4,222
2016-07-11,2,261
2016-07-12,0,224
2016-07-13,3,243
2016-07-14,1,245
2016-07-15,5,241
2016-07-16,3,224
2016-07-17,6,216
2016-07-18,6,257
2016-07-19,5,227
2016-07-20,3,244
2016-07-21,2,243
2016-07-22,5,238
2016-07-23,3,213
2016-07-24,3,206
2016-07-25,5,260
2016-07-26,2,209
2016-07-27,0,267
2016-07-28,0,216
2016-07-29,4,258
2016-07-30,4,229
2016-07-31,0,216
2016-08-01,0,229
2016-08-02,4,236
2016-08-03,1,237
2016-08-04,3,220
2016-08-05,4,242
2016-08-06,2,218
2016-08-07,5,216
2016-08-08,6,249
2016-08-09,5,232
2016-08-10,3,250
2016-08-11,3,221
2016-08-12,2,242
2016-08-13,2,205
2016-08-14,1,221
2016-08-15,2,238
2016-08-16,0,231
2016-08-17,9,235
2016-08-18,5,251
2016-08-19,3,229
2016-08-20,0,220
2016-08-21,3,229
2016-08-22,1,237
2016-08-23,0,237
2016-08-24,3,230
2016-08-25,1,213
2016-08-26,4,227
2016-08-27,6,209
2016-08-28,0,211
2016-08-29,2,251
2016-08-30,3,244
2016-08-31,0,226
2016-09-01,1,246
2016-09-02,5,224
2016-09-03,7,220
2016-09-04,1,216
2016-09-05,2,239
2016-09-06,2,217
2016-09-07,4,258
2016-09-08,0,213
2016-09-09,1,264
2016-09-10,2,204
2016-09-11,0,223
2016-09-12,0,232
2016-09-13,0,235
2016-09-14,0,231
2016-09-15,2,200
2016-09-16,3,220
2016-09-17,5,205
2016-09-18,2,237
2016-09-19,0,236
2016-09-20,1,218
2016-09-21,2,230
2016-09-22,0,217
2016-09-23,0,237
2016-09-24,0,200
2016-09-25,0,210
2016-09-26,0,227
2016-09-27,0,229
2016-09-28,8,216
2016-09-29,3,226
2016-09-30,4,234
2016-10-01,1,181
2016-10-02,0,191
2016-10-03,1,182
2016-10-04,1,203
2016-10-05,4,194
2016-10-06,0,201
2016-10-07,2,213
2016-10-08,1,243
2016-10-09,0,210
2016-10-10,0,235
2016-10-11,4,216
2016-10-12,0,213
2016-10-13,2,215
2016-10-14,1,227
2016-10-15,4,179
2016-10-16,4,190
2016-10-17,4,212
2016-10-18,1,218
2016-10-19,1,223
2016-10-20,1,227
2016-10-21,2,219
2016-10-22,2,209
2016-10-23,3,213
2016-10-24,0,234
2016-10-25,1,231
2016-10-26,3,226
2016-10-27,2,226
2016-10-28,4,231
2016-10-29,3,192
2016-10-30,2,220
2016-10-31,0,230
2016-11-01,0,228
2016-11-02,0,220
2016-11-03,4,221
2016-11-04,2,215
2016-11-05,1,213
2016-11-06,5,188
2016-11-07,2,223
2016-11-08,1,195
2016-11-09,1,231
2016-11-10,1,222
2016-11-11,0,236
2016-11-12,3,211
2016-11-13,0,206
2016-11-14,2,242
2016-11-15,1,226
2016-11-16,0,316
2016-11-17,2,337
2016-11-18,1,349
2016-11-19,1,327
2016-11-20,2,316
2016-11-21,3,390
2016-11-22,1,370
2016-11-23,2,377
2016-11-24,0,354
2016-11-25,4,367
2016-11-26,1,323
2016-11-27,6,333
2016-11-28,2,380
2016-11-29,0,359
2016-11-30,3,381
2016-12-01,7,377
2016-12-02,0,367
2016-12-03,4,329
2016-12-04,1,327
2016-12-05,3,397
2016-12-06,1,349
2016-12-07,1,399
2016-12-08,1,363
2016-12-09,0,387
2016-12-10,2,328
2016-12-11,2,340
2016-12-12,0,422
2016-12-13,3,358
2016-12-14,0,364
2016-12-15,2,394
2016-12-16,0,371
2016-12-17,3,343
2016-12-18,0,349
2016-12-19,2,394
2016-12-20,0,356
2016-12-21,1,368
2016-12-22,4,344
2016-12-23,0,373
2016-12-24,1,298
2016-12-25,1,332
2016-12-26,2,377
2016-12-27,5,351
2016-12-28,4,363
2016-12-29,1,345
2016-12-30,4,360
2016-12-31,2,285
2017-01-01,1,312
2017-01-02,4,330
2017-01-03,5,378
2017-01-04,4,341
2017-01-05,4,360
2017-01-06,4,332
2017-01-07,2,335
2017-01-08,2,298
2017-01-09,2,379
2017-01-10,1,338
2017-01-11,0,369
2017-01-12,1,327
2017-01-13,4,339
2017-01-14,3,312
2017-01-15,3,300
2017-01-16,3,367
2017-01-17,14,318
2017-01-18,4,373
2017-01-19,4,324
2017-01-20,6,344
2017-01-21,3,295
2017-01-22,2,313
2017-01-23,1,294
2017-01-24,5,323
2017-01-25,13,287
2017-01-26,5,264
2017-01-27,7,239
2017-01-28,15,228
2017-01-29,24,238
2017-01-30,9,236
2017-01-31,3,245
2017-02-01,1,250
2017-02-02,2,289
2017-02-03,5,303
2017-02-04,5,312
2017-02-05,9,319
2017-02-06,12,339
2017-02-07,16,333
2017-02-08,8,321
2017-02-09,3,322
2017-02-10,2,338
2017-02-11,1,281
2017-02-12,4,296
2017-02-13,7,356
2017-02-14,5,330
2017-02-15,0,341
2017-02-16,1,340
2017-02-17,4,364
2017-02-18,3,345
2017-02-19,0,286
2017-02-20,0,367
2017-02-21,1,307
2017-02-22,3,353
2017-02-23,2,335
2017-02-24,0,356
2017-02-25,3,285
2017-02-26,1,297
2017-02-27,2,351
2017-02-28,1,326
2017-03-01,1,334
2017-03-02,1,307
2017-03-03,1,344
2017-03-04,0,295
2017-03-05,0,304
2017-03-06,0,328
2017-03-07,1,308
2017-03-08,0,311
2017-03-09,0,308
2017-03-10,1,334
2017-03-11,3,278
2017-03-12,3,294
2017-03-13,1,334
2017-03-14,2,326
2017-03-15,0,308
2017-03-16,2,313
2017-03-17,3,327
2017-03-18,2,274
2017-03-19,0,295
2017-03-20,0,323
2017-03-21,0,304
2017-03-22,0,331
2017-03-23,1,303
2017-03-24,2,307
2017-03-25,4,267
2017-03-26,1,301
2017-03-27,0,313
2017-03-28,0,303
2017-03-29,0,298
2017-03-30,1,309
2017-03-31,3,306
2017-04-01,0,299
2017-04-02,0,271
2017-04-03,3,274
2017-04-04,0,272
2017-04-05,0,306
2017-04-06,1,299
2017-04-07,0,310
2017-04-08,1,276
2017-04-09,2,258
2017-04-10,2,326
2017-04-11,5,301
2017-04-12,1,303
2017-04-13,1,286
2017-04-14,0,307
2017-04-15,2,269
2017-04-16,4,283
2017-04-17,1,304
2017-04-18,1,285
2017-04-19,2,301
2017-04-20,1,275
2017-04-21,0,307
2017-04-22,0,75
2017-04-23,0,355
2017-04-24,1,259
2017-04-25,0,321
2017-04-26,1,273
2017-04-27,0,303
2017-04-28,1,263
2017-04-29,1,253
2017-04-30,3,239
2017-05-01,0,270
2017-05-02,1,288
2017-05-03,0,278
2017-05-04,2,288
2017-05-05,0,289
2017-05-06,1,271
2017-05-07,0,269
2017-05-08,0,298
2017-05-09,4,263
2017-05-10,0,281
2017-05-11,0,279
2017-05-12,0,290
2017-05-13,4,275
2017-05-14,1,256
2017-05-15,0,288
2017-05-16,0,249
2017-05-17,2,290
2017-05-18,2,230
2017-05-19,0,277
2017-05-20,2,254
2017-05-21,4,267
2017-05-22,1,283
2017-05-23,2,250
2017-05-24,1,265
2017-05-25,1,238
2017-05-26,1,264
2017-05-27,1,233
2017-05-28,2,223
2017-05-29,4,217
2017-05-30,3,244
2017-05-31,1,285
2017-06-01,1,261
2017-06-02,3,266
2017-06-03,3,252
2017-06-04,3,235
2017-06-05,0,280
2017-06-06,1,245
2017-06-07,1,270
2017-06-08,4,245
2017-06-09,2,279
2017-06-10,2,227
2017-06-11,1,250
2017-06-12,5,267
2017-06-13,2,266
2017-06-14,1,255
2017-06-15,1,239
2017-06-16,1,278
2017-06-17,0,227
2017-06-18,2,242
2017-06-19,2,265
2017-06-20,3,269
2017-06-21,3,263
2017-06-22,2,260
2017-06-23,5,256
2017-06-24,0,254
2017-06-25,2,239
2017-06-26,0,266
2017-06-27,3,255
2017-06-28,0,257
2017-06-29,2,250
2017-06-30,2,240
2017-07-01,5,245
2017-07-02,8,235
2017-07-03,0,270
2017-07-04,5,253
2017-07-05,0,258
2017-07-06,2,281
2017-07-07,1,248
2017-07-08,1,236
2017-07-09,1,214
2017-07-10,2,281
2017-07-11,1,229
2017-07-12,0,259
2017-07-13,2,245
2017-07-14,2,258
2017-07-15,1,229
2017-07-16,0,239
2017-07-17,0,265
2017-07-18,3,232
2017-07-19,1,261
2017-07-20,3,247
2017-07-21,1,331
2017-07-22,0,233
2017-07-23,2,263
2017-07-24,1,261
2017-07-25,2,262
2017-07-26,0,199
2017-07-27,0,292
2017-07-28,1,265
2017-07-29,2,253
2017-07-30,2,246
2017-07-31,0,287
2017-08-01,1,269
2017-08-02,2,264
2017-08-03,2,288
2017-08-04,4,285
2017-08-05,3,249
2017-08-06,6,240
2017-08-07,3,298
2017-08-08,1,269
2017-08-09,1,253
2017-08-10,0,286
2017-08-11,0,274
2017-08-12,1,250
2017-08-13,4,246
2017-08-14,0,265
2017-08-15,1,254
2017-08-16,0,247
2017-08-17,1,243
2017-08-18,0,262
2017-08-19,1,241
2017-08-20,1,208
2017-08-21,0,263
2017-08-22,1,276
2017-08-23,1,188
2017-08-24,0,255
2017-08-25,4,255
2017-08-26,0,233
2017-08-27,5,223
2017-08-28,3,265
2017-08-29,1,260
2017-08-30,1,239
2017-08-31,1,252
2017-09-01,4,252
2017-09-02,4,210
2017-09-03,0,254
2017-09-04,2,286
2017-09-05,1,259
2017-09-06,0,160
2017-09-07,1,267
2017-09-08,0,248
2017-09-09,3,224
2017-09-10,1,220
2017-09-11,0,254
2017-09-12,2,262
2017-09-13,1,165
2017-09-14,2,237
2017-09-15,1,228
2017-09-16,1,239
2017-09-17,0,232
2017-09-18,0,260
2017-09-19,0,235
2017-09-20,1,249
2017-09-21,0,226
2017-09-22,3,240
2017-09-23,1,205
2017-09-24,3,210
2017-09-25,1,234
2017-09-26,2,228
2017-09-27,2,225
2017-09-28,1,220
2017-09-29,2,213
2017-09-30,6,228
2017-10-01,2,185
2017-10-02,2,163
2017-10-03,3,187
2017-10-04,1,205
2017-10-05,2,190
2017-10-06,1,198
2017-10-07,3,204
2017-10-08,1,228
2017-10-09,0,226
2017-10-10,0,234
2017-10-11,1,214
2017-10-12,2,211
2017-10-13,1,227
2017-10-14,0,216
2017-10-15,1,201
2017-10-16,2,254
2017-10-17,1,207
2017-10-18,2,233
2017-10-19,1,232
2017-10-20,1,218
2017-10-21,2,217
2017-10-22,0,204
2017-10-23,0,232
2017-10-24,0,221
2017-10-25,6,223
2017-10-26,0,207
2017-10-27,0,210
2017-10-28,1,213
2017-10-29,4,215
2017-10-30,1,209
2017-10-31,1,201
2017-11-01,2,221
2017-11-02,0,220
2017-11-03,0,244
2017-11-04,2,202
2017-11-05,1,185
2017-11-06,0,113
2017-11-07,2,236
2017-11-08,0,203
2017-11-09,1,214
2017-11-10,0,229
2017-11-11,1,200
2017-11-12,0,186
2017-11-13,2,208
2017-11-14,0,215
2017-11-15,1,217
2017-11-16,0,212
2017-11-17,1,218
2017-11-18,3,197
2017-11-19,3,184
2017-11-20,1,218
2017-11-21,2,190
2017-11-22,1,218
2017-11-23,1,184
2017-11-24,1,220
2017-11-25,2,177
2017-11-26,2,180
2017-11-27,1,214
2017-11-28,2,205
2017-11-29,0,204
2017-11-30,2,172
2017-12-01,1,215
2017-12-02,0,187
2017-12-03,0,182
2017-12-04,1,212
2017-12-05,2,215
2017-12-06,2,202
2017-12-07,1,214
2017-12-08,1,202
2017-12-09,4,189
2017-12-10,2,186
2017-12-11,0,212
2017-12-12,2,203
2017-12-13,2,202
2017-12-14,0,217
2017-12-15,0,222
2017-12-16,3,203
2017-12-17,3,182
2017-12-18,1,203
2017-12-19,4,214
2017-12-20,3,185
2017-12-21,3,196
2017-12-22,1,219
2017-12-23,3,212
2017-12-24,0,158
2017-12-25,0,232
2017-12-26,3,214
2017-12-27,1,212
2017-12-28,1,202
2017-12-29,5,207
2017-12-30,3,190
2017-12-31,4,184
2018-01-01,3,192
2018-01-02,1,216
2018-01-03,4,204
2018-01-04,3,215
2018-01-05,4,216
2018-01-06,2,211
2018-01-07,2,203
2018-01-08,0,206
2018-01-09,1,209
2018-01-10,1,209
2018-01-11,3,210
2018-01-12,0,191
2018-01-13,2,202
2018-01-14,1,196
2018-01-15,2,220
2018-01-16,1,202
2018-01-17,2,225
2018-01-18,3,210
2018-01-19,2,206
2018-01-20,0,193
2018-01-21,2,188
2018-01-22,2,222
2018-01-23,3,221
2018-01-24,1,220
2018-01-25,1,205
2018-01-26,3,207
2018-01-27,1,191
2018-01-28,2,213
2018-01-29,6,213
2018-01-30,2,209
2018-01-31,1,210
2018-02-01,0,218
2018-02-02,3,207
2018-02-03,3,186
2018-02-04,1,203
2018-02-05,2,215
2018-02-06,1,215
2018-02-07,1,215
2018-02-08,1,195
2018-02-09,4,216
2018-02-10,0,187
2018-02-11,2,207
2018-02-12,1,185
2018-02-13,0,187
2018-02-14,2,181
2018-02-15,1,157
2018-02-16,1,151
2018-02-17,2,162
2018-02-18,1,169
2018-02-19,0,166
2018-02-20,5,182
2018-02-21,1,179
2018-02-22,3,216
2018-02-23,3,189
2018-02-24,2,231
2018-02-25,2,181
2018-02-26,0,206
2018-02-27,4,214
2018-02-28,3,218
2018-03-01,2,213
2018-03-02,2,202
2018-03-03,5,204
2018-03-04,3,186
2018-03-05,3,227
2018-03-06,1,206
2018-03-07,0,219
2018-03-08,1,216
2018-03-09,0,218
2018-03-10,7,206
2018-03-11,5,199
2018-03-12,2,224
2018-03-13,3,219
2018-03-14,0,239
2018-03-15,2,223
2018-03-16,0,236
2018-03-17,1,214
2018-03-18,0,200
2018-03-19,0,234
2018-03-20,1,227
2018-03-21,1,213
2018-03-22,7,204
2018-03-23,2,232
2018-03-24,3,192
2018-03-25,2,193
2018-03-26,2,228
2018-03-27,1,227
2018-03-28,0,207
2018-03-29,2,236
2018-03-30,0,210
2018-03-31,0,206
2018-04-01,0,195
2018-04-02,1,219
2018-04-03,0,203
2018-04-04,1,212
2018-04-05,3,172
2018-04-06,3,179
2018-04-07,1,185
2018-04-08,2,230
2018-04-09,1,206
2018-04-10,2,203
2018-04-11,4,224
2018-04-12,1,199
2018-04-13,1,211
2018-04-14,0,195
2018-04-15,0,191
2018-04-16,2,224
2018-04-17,1,221
2018-04-18,1,213
2018-04-19,1,225
2018-04-20,2,213
2018-04-21,7,209
2018-04-22,1,192
2018-04-23,3,222
2018-04-24,2,218
2018-04-25,1,211
2018-04-26,0,214
2018-04-27,0,199
2018-04-28,3,216
2018-04-29,3,187
2018-04-30,2,182
2018-05-01,2,198
2018-05-02,2,221
2018-05-03,0,206
2018-05-04,3,211
2018-05-05,1,198
2018-05-06,1,186
2018-05-07,1,224
2018-05-08,0,224
2018-05-09,3,209
2018-05-10,3,201
2018-05-11,1,207
2018-05-12,3,199
2018-05-13,2,154
2018-05-14,0,220
2018-05-15,2,184
2018-05-16,0,196
2018-05-17,1,188
2018-05-18,0,193
2018-05-19,2,148
2018-05-20,0,186
2018-05-21,1,206
2018-05-22,2,183
2018-05-23,1,201
2018-05-24,1,188
2018-05-25,0,206
2018-05-26,1,188
2018-05-27,4,184
2018-05-28,0,206
2018-05-29,0,198
2018-05-30,1,204
2018-05-31,1,202
2018-06-01,1,200
2018-06-02,0,159
2018-06-03,2,169
2018-06-04,0,182
2018-06-05,2,202
2018-06-06,2,190
2018-06-07,1,180
2018-06-08,1,188
2018-06-09,0,151
2018-06-10,2,161
2018-06-11,3,206
2018-06-12,1,189
2018-06-13,1,184
2018-06-14,1,198
2018-06-15,3,188
2018-06-16,2,156
2018-06-17,3,164
2018-06-18,1,158
2018-06-19,2,185
2018-06-20,0,82
2018-06-21,0,99
2018-06-22,1,202
2018-06-23,4,163
2018-06-24,1,165
2018-06-25,0,196
2018-06-26,0,166
2018-06-27,2,195
2018-06-28,4,180
2018-06-29,3,181
2018-06-30,2,164
2018-07-01,2,164
2018-07-02,2,202
2018-07-03,2,175
2018-07-04,0,186
2018-07-05,2,173
2018-07-06,3,184
2018-07-07,3,173
2018-07-08,2,158
2018-07-09,1,185
2018-07-10,1,174
2018-07-11,1,175
2018-07-12,0,182
2018-07-13,1,175
2018-07-14,1,171
2018-07-15,2,156
2018-07-16,3,191
2018-07-17,1,151
2018-07-18,1,180
2018-07-19,3,169
2018-07-20,1,181
2018-07-21,0,148
2018-07-22,2,147
2018-07-23,2,186
2018-07-24,0,186
2018-07-25,1,175
2018-07-26,3,177
2018-07-27,2,171
2018-07-28,2,165
2018-07-29,0,162
2018-07-30,1,176
2018-07-31,1,167
2018-08-01,1,168
2018-08-02,3,185
2018-08-03,4,172
2018-08-04,2,156
2018-08-05,0,154
2018-08-06,1,178
2018-08-07,0,175
2018-08-08,3,179
2018-08-09,1,177
2018-08-10,3,180
2018-08-11,0,165
2018-08-12,1,161
2018-08-13,2,185
2018-08-14,3,185
2018-08-15,1,192
2018-08-16,0,171
2018-08-17,3,190
2018-08-18,0,152
2018-08-19,2,165
2018-08-20,1,190
2018-08-21,2,162
2018-08-22,2,187
2018-08-23,3,172
2018-08-24,2,183
2018-08-25,0,153
2018-08-26,2,166
2018-08-27,0,180
2018-08-28,3,179
2018-08-29,0,149
2018-08-30,2,171
2018-08-31,3,177
2018-09-01,5,156
2018-09-02,2,164
2018-09-03,1,182
2018-09-04,4,171
2018-09-05,2,173
2018-09-06,3,172
2018-09-07,3,183
2018-09-08,2,157
2018-09-09,2,160
2018-09-10,2,191
2018-09-11,0,172
2018-09-12,3,157
2018-09-13,0,152
2018-09-14,1,160
2018-09-15,3,160
2018-09-16,5,154
2018-09-17,1,180
2018-09-18,5,163
2018-09-19,2,169
2018-09-20,5,167
2018-09-21,2,176
2018-09-22,2,154
2018-09-23,3,155
2018-09-24,4,133
2018-09-25,2,180
2018-09-26,2,163
2018-09-27,4,174
2018-09-28,1,169
2018-09-29,0,173
2018-09-30,2,166
2018-10-01,4,138
2018-10-02,2,136
2018-10-03,3,146
2018-10-04,3,146
2018-10-05,1,142
2018-10-06,2,157
2018-10-07,1,151
2018-10-08,2,184
2018-10-09,0,161
2018-10-10,3,190
2018-10-11,1,171
2018-10-12,2,185
2018-10-13,6,164
2018-10-14,2,155
2018-10-15,1,184
2018-10-16,1,184
2018-10-17,4,162
2018-10-18,2,186
2018-10-19,0,186
2018-10-20,6,170
2018-10-21,2,166
2018-10-22,2,176
2018-10-23,4,183
2018-10-24,3,170
2018-10-25,3,187
2018-10-26,2,187
2018-10-27,2,188
2018-10-28,2,165
2018-10-29,2,184
2018-10-30,4,171
2018-10-31,0,169
2018-11-01,0,187
2018-11-02,4,179
2018-11-03,0,165
2018-11-04,3,165
2018-11-05,1,185
2018-11-06,0,178
2018-11-07,2,187
2018-11-08,5,182
2018-11-09,0,184
2018-11-10,1,165
2018-11-11,1,154
2018-11-12,2,185
2018-11-13,0,184
2018-11-14,0,165
2018-11-15,0,169
2018-11-16,1,191
2018-11-17,2,184
2018-11-18,1,161
2018-11-19,1,178
2018-11-20,1,166
2018-11-21,2,182
2018-11-22,3,171
2018-11-23,4,185
2018-11-24,2,159
2018-11-25,2,185
2018-11-26,3,179
2018-11-27,2,189
2018-11-28,2,183
2018-11-29,2,171
2018-11-30,1,198
2018-12-01,6,175
2018-12-02,0,156
2018-12-03,3,197
2018-12-04,4,178
2018-12-05,0,178
2018-12-06,2,175
2018-12-07,1,201
2018-12-08,2,163
2018-12-09,5,174
2018-12-10,4,172
2018-12-11,3,177
2018-12-12,3,170
2018-12-13,1,173
2018-12-14,2,181
2018-12-15,3,156
2018-12-16,1,170
2018-12-17,2,196
2018-12-18,0,178
2018-12-19,0,175
2018-12-20,3,170
2018-12-21,2,163
2018-12-22,3,146
2018-12-23,0,145
2018-12-24,3,181
2018-12-25,2,174
2018-12-26,0,169
2018-12-27,5,171
2018-12-28,3,170
2018-12-29,1,161